Date,TemperatureHighF,TemperatureAvgF,TemperatureLowF,DewpointHighF,DewpointAvgF,DewpointLowF,HumidityHigh,HumidityAvg,HumidityLow,PressureMaxIn,PressureMinIn,WindSpeedMaxMPH,WindSpeedAvgMPH,GustSpeedMaxMPH,PrecipitationSumIn
2013-3-1,31,29,26,30,27,24,95,94,94,30.00,29.90,12,4,13,0.02
2013-3-2,26,24,21,24,21,18,94,90,79,30.05,29.96,14,6,16,0.00
2013-3-3,25,21,20,20,18,16,93,89,77,30.09,30.01,10,5,21,0.00
2013-3-4,22,21,19,19,15,11,92,80,68,30.16,30.09,10,4,15,0.00
2013-3-6,29,29,28,28,27,26,94,94,94,30.21,30.09,13,3,13,0.02
2013-3-7,32,29,27,31,27,26,95,94,94,30.34,30.20,9,4,16,0.01
2013-3-8,44,34,27,28,26,23,94,75,47,30.42,30.31,13,6,16,0.04
2013-3-9,65,47,29,30,26,23,81,48,22,30.38,30.14,12,4,17,0.00
2013-3-10,71,58,49,35,30,27,44,35,24,30.16,29.99,13,5,20,0.00
2013-3-11,55,54,54,33,32,30,45,42,39,30.01,29.90,13,6,23,0.00
2013-3-13,34,27,22,28,23,18,94,84,63,30.27,30.07,20,7,37,0.02
2013-3-14,23,22,21,21,19,16,93,89,81,30.32,30.26,12,6,20,0.00
2013-3-15,57,54,50,35,33,32,54,47,39,29.90,29.87,9,4,18,0.00
2013-3-16,71,56,43,52,43,34,96,66,41,29.96,29.64,15,5,28,0.28
2013-3-17,46,38,34,41,36,33,96,94,84,30.12,29.96,15,6,23,0.25
2013-3-18,50,43,38,46,40,34,96,89,78,30.00,29.71,20,7,31,0.26
2013-3-19,50,42,35,48,22,5,97,53,20,30.08,29.76,18,6,37,0.25
2013-3-20,45,35,28,28,16,7,94,49,29,30.11,29.82,22,5,29,0.00
2013-3-21,28,21,17,20,15,7,92,77,61,30.05,29.94,13,6,23,0.01
2013-3-22,43,29,15,17,12,8,74,52,30,30.07,29.98,9,3,14,0.00
2013-3-23,54,39,30,22,17,12,65,41,25,30.06,29.92,11,4,14,0.00
2013-3-24,42,39,35,35,28,18,95,68,41,29.91,29.46,19,7,31,0.39
2013-3-25,36,34,31,35,32,29,95,95,92,29.55,29.49,10,5,22,0.08